weather.gov     
National Weather Service

Regional Weather Roundup
NWS Homepage
This page is being discontinued on March 12, 2014.
The same data is available at this site. Please update your bookmarks.
Thank you, and we apologize for the inconvenience.
Please send an email to SR-SRH.Webmaster@noaa.gov with any concerns.


Current Version
Previous Version:    01  02  03  04  05  06  07  08  09  10  11  12  13  14  15  16  17  18  19  20  21  22  23  24  25  26  27  28  29  30  
   31  32  33  34  35  36  37  38  39  40  41  42  43  44  45  46  47  48  49  50  51  52  53  
[Printable]
873
ASCA42 TJSJ 221511
RWRPR
PUERTO RICO/U.S. VIRGIN ISLANDS HOURLY WEATHER ROUNDUP
NATIONAL WEATHER SERVICE SAN JUAN PR
1100 AM AST FRI AUG 22 2014

PRZ001-004-221600-
PUERTO RICO

CITY           SKY/WX    TMP DP  RH WIND       PRES   REMARKS
SAN JUAN LMM   LGT RAIN  79  79 100 E3        29.88R
PONCE          PTSUNNY   91  75  59 S9        29.82R HX 102
AGUADILLA      PTSUNNY   82  77  83 E7        29.90R HX  91
CEIBA          HVY RAIN  75  73  94 E3        29.90R FOG
$$

PRZ006-007-221600-
U.S. VIRGIN ISLANDS

CITY           SKY/WX    TMP DP  RH WIND       PRES   REMARKS
$$

HOURLY WEATHER ROUNDUP FOR THE NEWS MEDIA

CITY           SKY/WX    TMP DP  RH WIND       PRES   REMARKS
MIAMI          MOSUNNY   89  73  59 SE7       30.08S HX  97
ORLANDO        SUNNY     88  76  67 W3        30.09S HX  99
NEW YORK       PTSUNNY   74  61  63 E12       30.06S
NEWARK         CLOUDY    72  63  73 SE5       30.05S
CHICAGO        CLOUDY    78  74  87 SW5       29.94R
HARTFORD       PTSUNNY   72  63  73 NE10      30.06S
BOSTON         CLOUDY    69  65  86 E9        30.09S
DALLAS         SUNNY     84  72  67 SW13G22   30.05S
PHILADELPHIA   CLOUDY    74  67  78 E8        30.03S




U.S. Dept. of Commerce
NOAA National Weather Service
1325 East West Highway
Silver Spring, MD 20910
E-mail: w-nws.webmaster@noaa.gov
Page last modified: May 16, 2007
NATIONAL WEATHER SERVICE: for Safety, for Work, for Fun - FOR LIFE